Location: Catacaguana
(10.4120°N, 66.7591°W)
Time: 04:30:24
(UTC+00:00)

Cosmos 192 - Pass Details

Date: 27 May 2022
Orbit: 701 x 712 km, 74.0° (Epoch: 24 June)

Event Time Altitude Azimuth Distance (km) Brightness Sun altitude
Exits shadow 09:12:28 - 200° (SSW) 2,431 6.7 -12.5°
Reaches altitude 10° 09:13:07 10° 201° (SSW) 2,177 6.4 -12.4°
Maximum altitude 09:18:00 66° 283° (WNW) 769 4.3 -11.3°
Drops below altitude 10° 09:22:51 10° 5° (N) 2,169 7.3 -10.2°
Sets 09:25:11 0° 8° (N) 3,085 8.1 -9.7°
